Location: Prague
(50.0830°N, 14.4670°E)
Time: 03:51:51
(UTC+01:00)

BUGSAT 1 - Visible Passes

Search period start: 29 November 2021 00:00
Search period end: 09 December 2021 00:00
Orbit: 558 x 601 km, 98.1° (Epoch: 28 November)

Date Brightness Start Highest point End Pass type
(mag) Time Alt. Az. Time Alt. Az. Time Alt. Az.
29 Nov ? 04:15:51 10° NE 04:19:09 22° E 04:22:27 10° SE visible
29 Nov ? 05:50:36 10° N 05:54:37 44° WNW 05:58:38 10° SW visible
29 Nov ? 16:44:11 10° SSW 16:47:50 33° W 16:51:35 10° NNW visible
30 Nov ? 04:20:28 10° NE 04:23:55 24° E 04:27:23 10° SSE visible
30 Nov ? 05:55:22 10° N 05:59:20 40° WNW 06:03:17 10° SW visible
30 Nov ? 16:49:02 10° SSW 16:52:37 30° W 16:56:15 10° NNW visible
01 Dec ? 04:25:06 10° NE 04:28:42 26° E 04:32:17 10° SSE visible
01 Dec ? 06:00:09 10° N 06:04:02 37° WNW 06:07:55 10° SW visible
01 Dec ? 16:53:54 10° SSW 16:57:22 27° W 17:00:55 10° NW visible
02 Dec ? 04:29:45 10° NE 04:33:27 29° E 04:37:10 10° SSE visible
02 Dec ? 06:04:57 10° N 06:08:45 33° WNW 06:12:33 10° SW visible
02 Dec ? 16:58:47 10° SSW 17:02:08 24° W 17:05:32 10° NW visible
03 Dec ? 04:34:24 10° NNE 04:38:14 32° E 04:42:02 10° SSE visible
03 Dec ? 06:09:44 10° N 06:13:27 31° WNW 06:17:09 10° SW visible
03 Dec ? 17:03:40 10° SW 17:06:54 22° W 17:10:11 10° NW visible
04 Dec ? 04:39:04 10° NNE 04:42:59 35° E 04:46:52 10° SSE visible
04 Dec ? 06:14:31 10° N 06:18:09 28° WNW 06:21:46 10° WSW visible
04 Dec ? 17:08:36 10° SW 17:11:40 20° W 17:14:47 10° NW visible
05 Dec ? 04:43:44 10° NNE 04:47:44 39° E 04:51:43 10° SSE visible
05 Dec ? 06:19:19 10° N 06:22:51 26° WNW 06:26:20 10° WSW visible
05 Dec ? 17:13:33 10° SW 17:16:26 18° W 17:19:22 10° NW visible
06 Dec ? 04:48:25 10° NNE 04:52:29 43° E 04:56:32 10° S visible
06 Dec ? 06:24:08 10° N 06:27:31 24° WNW 06:30:54 10° WSW visible
06 Dec ? 17:18:30 10° SW 17:21:12 17° W 17:23:56 10° NW visible
07 Dec ? 04:53:06 10° NNE 04:57:14 48° E 05:01:19 10° S visible
07 Dec ? 06:28:57 10° NNW 06:32:13 22° WNW 06:35:27 10° WSW visible
07 Dec ? 17:23:31 10° SW 17:25:59 15° W 17:28:27 10° NW visible
08 Dec ? 04:57:48 10° NNE 05:01:58 53° E 05:06:06 10° S visible
08 Dec ? 06:33:47 10° NNW 06:36:53 20° WNW 06:39:59 10° WSW visible
08 Dec ? 17:28:35 10° WSW 17:30:44 14° W 17:32:56 10° WNW visible
